• In Uzbekistan
  • List of Countries
  • For 7 days
  • Water Temperature
  • Weather Map
  • Weather Widgets
  • user-avatar
    Login

    Hourly Weather Kanggye

    Today, 25 August, Sunday

    Time Temperature Precipitation Wind Pressure Humidity
    00:00 +16°C° 0 mm 1 mps 727 mmHg 94%
    01:00 +14°C° 0 mm 0 mps 727 mmHg 94%
    02:00 +15°C° 0 mm 1 mps 727 mmHg 94%
    03:00 +14°C° 0 mm 0 mps 727 mmHg 95%
    04:00 +14°C° 0 mm 0 mps 727 mmHg 95%
    05:00 +13°C° 0 mm 0 mps 728 mmHg 95%
    06:00 +16°C° 0 mm 0 mps 728 mmHg 90%
    07:00 +18°C° 0 mm 0 mps 728 mmHg 85%
    08:00 +21°C° 0 mm 0 mps 729 mmHg 80%
    09:00 +25°C° 0 mm 1 mps 729 mmHg 70%
    10:00 +26°C° 0 mm 1 mps 729 mmHg 60%
    11:00 +28°C° 0 mm 1 mps 729 mmHg 50%
    12:00 +28°C° 0 mm 1 mps 728 mmHg 49%
    13:00 +28°C° 0 mm 2 mps 728 mmHg 48%
    14:00 +28°C° 0 mm 2 mps 728 mmHg 45%
    15:00 +27°C° 0 mm 2 mps 728 mmHg 53%
    16:00 +26°C° 0 mm 1 mps 728 mmHg 60%
    17:00 +25°C° 0 mm 1 mps 728 mmHg 68%
    18:00 +23°C° 0 mm 1 mps 728 mmHg 73%
    19:00 +21°C° 0 mm 1 mps 728 mmHg 78%
    20:00 +20°C° 0 mm 1 mps 728 mmHg 83%
    21:00 +19°C° 0 mm 1 mps 728 mmHg 85%
    22:00 +19°C° 0 mm 1 mps 728 mmHg 86%
    23:00 +18°C° 0 mm 1 mps 728 mmHg 88%

    Tomorrow, 26 August, Monday

    Time Temperature Precipitation Wind Pressure Humidity
    00:00 +18°C° 0 mm 1 mps 728 mmHg 89%
    01:00 +18°C° 0 mm 1 mps 728 mmHg 90%
    02:00 +18°C° 0 mm 1 mps 728 mmHg 92%
    03:00 +16°C° 0 mm 1 mps 728 mmHg 92%
    04:00 +16°C° 0 mm 1 mps 728 mmHg 93%
    05:00 +16°C° 0 mm 1 mps 728 mmHg 93%
    06:00 +20°C° 0 mm 1 mps 728 mmHg 85%
    07:00 +20°C° 0 mm 0 mps 728 mmHg 76%
    08:00 +23°C° 0 mm 0 mps 728 mmHg 68%
    09:00 +25°C° 0 mm 0 mps 728 mmHg 62%
    10:00 +28°C° 0 mm 1 mps 728 mmHg 56%
    11:00 +30°C° 0 mm 1 mps 728 mmHg 50%
    12:00 +30°C° 0.1 mm 1 mps 727 mmHg 51%
    13:00 +30°C° 0.1 mm 2 mps 727 mmHg 52%
    14:00 +30°C° 0.1 mm 2 mps 726 mmHg 53%
    15:00 +28°C° 0.4 mm 2 mps 726 mmHg 65%
    16:00 +27°C° 0.4 mm 1 mps 726 mmHg 77%
    17:00 +25°C° 0.4 mm 1 mps 726 mmHg 89%
    18:00 +24°C° 0.3 mm 1 mps 727 mmHg 91%
    19:00 +22°C° 0.3 mm 1 mps 727 mmHg 92%
    20:00 +21°C° 0.3 mm 1 mps 727 mmHg 94%
    21:00 +21°C° 0.1 mm 1 mps 727 mmHg 95%
    22:00 +20°C° 0.1 mm 1 mps 727 mmHg 95%
    23:00 +20°C° 0.1 mm 1 mps 727 mmHg 96%

    Day after tomorrow, 27 August, Tuesday

    Time Temperature Precipitation Wind Pressure Humidity
    00:00 +20°C° 0.4 mm 1 mps 726 mmHg 96%
    01:00 +20°C° 0.4 mm 1 mps 726 mmHg 97%
    02:00 +20°C° 0.4 mm 1 mps 726 mmHg 97%
    03:00 +19°C° 0.2 mm 1 mps 726 mmHg 97%
    04:00 +17°C° 0.2 mm 0 mps 726 mmHg 97%
    05:00 +17°C° 0.2 mm 0 mps 726 mmHg 97%
    06:00 +18°C° 0.1 mm 0 mps 726 mmHg 96%
    07:00 +18°C° 0.1 mm 0 mps 726 mmHg 96%
    08:00 +19°C° 0.1 mm 0 mps 725 mmHg 95%
    09:00 +21°C° 0.2 mm 0 mps 725 mmHg 87%
    10:00 +24°C° 0.2 mm 1 mps 725 mmHg 79%
    11:00 +26°C° 0.2 mm 1 mps 725 mmHg 70%
    12:00 +26°C° 0.3 mm 1 mps 725 mmHg 70%
    13:00 +27°C° 0.3 mm 1 mps 724 mmHg 70%
    14:00 +27°C° 0.3 mm 2 mps 724 mmHg 70%
    15:00 +26°C° 0.3 mm 1 mps 724 mmHg 76%
    16:00 +25°C° 0.3 mm 1 mps 724 mmHg 83%
    17:00 +22°C° 0.3 mm 0 mps 724 mmHg 89%
    18:00 +21°C° 0.1 mm 0 mps 724 mmHg 91%
    19:00 +19°C° 0.1 mm 0 mps 724 mmHg 93%
    20:00 +18°C° 0.1 mm 0 mps 725 mmHg 94%
    21:00 +18°C° 0.1 mm 0 mps 725 mmHg 95%
    22:00 +19°C° 0.1 mm 1 mps 725 mmHg 95%
    23:00 +19°C° 0.1 mm 1 mps 725 mmHg 96%

    28 August, Wednesday

    Time Temperature Precipitation Wind Pressure Humidity
    00:00 +19°C° 0.2 mm 1 mps 724 mmHg 96%
    01:00 +18°C° 0.2 mm 1 mps 724 mmHg 96%
    02:00 +18°C° 0.2 mm 1 mps 724 mmHg 96%
    03:00 +18°C° 0 mm 1 mps 724 mmHg 96%
    04:00 +18°C° 0 mm 1 mps 724 mmHg 96%
    05:00 +18°C° 0 mm 1 mps 724 mmHg 96%
    06:00 +19°C° 0.1 mm 1 mps 724 mmHg 94%
    07:00 +21°C° 0.1 mm 1 mps 724 mmHg 91%
    08:00 +21°C° 0.1 mm 0 mps 724 mmHg 88%
    09:00 +25°C° 0.4 mm 1 mps 724 mmHg 80%
    10:00 +26°C° 0.4 mm 1 mps 723 mmHg 72%
    11:00 +27°C° 0.4 mm 1 mps 723 mmHg 63%
    12:00 +28°C° 0.1 mm 2 mps 723 mmHg 58%
    13:00 +28°C° 0.1 mm 2 mps 722 mmHg 53%
    14:00 +29°C° 0.1 mm 2 mps 722 mmHg 48%
    15:00 +27°C° 0.5 mm 2 mps 722 mmHg 61%
    16:00 +25°C° 0.5 mm 2 mps 721 mmHg 74%
    17:00 +23°C° 0.5 mm 2 mps 721 mmHg 86%
    18:00 +22°C° 0.6 mm 1 mps 722 mmHg 89%
    19:00 +20°C° 0.6 mm 1 mps 722 mmHg 91%
    20:00 +18°C° 0.6 mm 1 mps 722 mmHg 93%
    21:00 +18°C° 0.1 mm 1 mps 722 mmHg 94%
    22:00 +16°C° 0.1 mm 1 mps 722 mmHg 94%
    23:00 +16°C° 0.1 mm 1 mps 722 mmHg 94%

    29 August, Thursday

    Time Temperature Precipitation Wind Pressure Humidity
    00:00 +16°C° 0 mm 1 mps 722 mmHg 94%
    01:00 +15°C° 0 mm 1 mps 722 mmHg 94%
    02:00 +15°C° 0 mm 1 mps 721 mmHg 94%
    03:00 +15°C° 0 mm 1 mps 721 mmHg 94%
    04:00 +15°C° 0 mm 1 mps 721 mmHg 94%
    05:00 +14°C° 0 mm 1 mps 721 mmHg 94%
    06:00 +18°C° 0.1 mm 1 mps 721 mmHg 90%
    07:00 +20°C° 0.1 mm 1 mps 721 mmHg 86%
    08:00 +22°C° 0.1 mm 1 mps 721 mmHg 82%
    09:00 +23°C° 0.6 mm 1 mps 721 mmHg 76%
    10:00 +24°C° 0.6 mm 2 mps 721 mmHg 71%
    11:00 +25°C° 0.6 mm 2 mps 721 mmHg 66%
    12:00 +24°C° 1.1 mm 2 mps 721 mmHg 72%
    13:00 +24°C° 1.1 mm 2 mps 720 mmHg 78%
    14:00 +23°C° 1.1 mm 2 mps 720 mmHg 84%
    15:00 +23°C° 0.9 mm 2 mps 720 mmHg 87%
    16:00 +22°C° 0.9 mm 1 mps 720 mmHg 90%
    17:00 +22°C° 0.9 mm 1 mps 720 mmHg 93%
    18:00 +20°C° 0.3 mm 1 mps 721 mmHg 94%
    19:00 +19°C° 0.3 mm 1 mps 721 mmHg 95%
    20:00 +16°C° 0.3 mm 1 mps 721 mmHg 96%
    21:00 +16°C° 0.1 mm 1 mps 721 mmHg 96%
    22:00 +15°C° 0.1 mm 1 mps 721 mmHg 96%
    23:00 +15°C° 0.1 mm 1 mps 721 mmHg 96%

    30 August, Friday

    Time Temperature Precipitation Wind Pressure Humidity
    00:00 +15°C° 0 mm 1 mps 721 mmHg 95%
    01:00 +15°C° 0 mm 1 mps 722 mmHg 95%
    02:00 +15°C° 0 mm 1 mps 722 mmHg 95%
    03:00 +15°C° 0.1 mm 1 mps 722 mmHg 95%
    04:00 +14°C° 0.1 mm 1 mps 722 mmHg 95%
    05:00 +14°C° 0.1 mm 1 mps 722 mmHg 96%
    06:00 +16°C° 0.2 mm 1 mps 722 mmHg 94%
    07:00 +19°C° 0.2 mm 1 mps 722 mmHg 92%
    08:00 +18°C° 0.2 mm 0 mps 722 mmHg 90%
    09:00 +21°C° 0.6 mm 1 mps 722 mmHg 87%
    10:00 +22°C° 0.6 mm 1 mps 722 mmHg 84%
    11:00 +21°C° 0.6 mm 2 mps 722 mmHg 82%
    12:00 +22°C° 1.1 mm 1 mps 722 mmHg 83%
    13:00 +22°C° 1.1 mm 1 mps 721 mmHg 84%
    14:00 +22°C° 1.1 mm 1 mps 721 mmHg 85%
    15:00 +22°C° 0.9 mm 1 mps 722 mmHg 88%
    16:00 +21°C° 0.9 mm 1 mps 722 mmHg 90%
    17:00 +19°C° 0.9 mm 0 mps 722 mmHg 92%
    18:00 +17°C° 0.2 mm 0 mps 722 mmHg 93%
    19:00 +16°C° 0.2 mm 0 mps 723 mmHg 94%
    20:00 +14°C° 0.2 mm 0 mps 723 mmHg 95%
    21:00 +14°C° 0 mm 0 mps 723 mmHg 95%
    22:00 +14°C° 0 mm 0 mps 724 mmHg 96%
    23:00 +13°C° 0 mm 0 mps 724 mmHg 96%
    Show more